TimeMST,TemperatureF,Dew PointF,Humidity,Sea Level PressureIn,VisibilityMPH,Wind Direction,Wind SpeedMPH,Gust SpeedMPH,PrecipitationIn,Events,Conditions,WindDirDegrees,DateUTC
12:51 AM,88.0,45.0,22,29.68,10.0,Calm,Calm,-,N/A,,Clear,0,2013-06-01 07:51:00
1:51 AM,86.0,45.0,24,29.68,10.0,Calm,Calm,-,N/A,,Clear,0,2013-06-01 08:51:00
2:51 AM,84.0,46.9,27,29.68,10.0,East,4.6,-,N/A,,Clear,90,2013-06-01 09:51:00
3:51 AM,82.9,48.0,29,29.68,10.0,East,5.8,-,N/A,,Clear,80,2013-06-01 10:51:00
4:51 AM,82.0,45.0,27,29.70,10.0,East,8.1,-,N/A,,Clear,80,2013-06-01 11:51:00
5:51 AM,80.1,44.1,28,29.72,10.0,East,5.8,-,N/A,,Clear,80,2013-06-01 12:51:00
6:51 AM,82.9,45.0,26,29.73,10.0,East,6.9,-,N/A,,Clear,90,2013-06-01 13:51:00
7:51 AM,87.1,45.0,23,29.74,10.0,East,4.6,-,N/A,,Clear,80,2013-06-01 14:51:00
8:51 AM,90.0,46.9,23,29.74,10.0,Calm,Calm,-,N/A,,Clear,0,2013-06-01 15:51:00
9:51 AM,96.1,39.9,14,29.72,10.0,Variable,5.8,-,N/A,,Partly Cloudy,0,2013-06-01 16:51:00
10:51 AM,99.0,30.9,9,29.71,10.0,Calm,Calm,-,N/A,,Partly Cloudy,0,2013-06-01 17:51:00
11:51 AM,100.9,27.0,7,29.69,10.0,Variable,3.5,-,N/A,,Scattered Clouds,0,2013-06-01 18:51:00
12:51 PM,105.1,27.0,6,29.67,10.0,SW,8.1,-,N/A,,Scattered Clouds,220,2013-06-01 19:51:00
1:51 PM,106.0,25.0,6,29.65,10.0,Variable,3.5,-,N/A,,Mostly Cloudy,0,2013-06-01 20:51:00
2:51 PM,107.1,26.1,6,29.63,10.0,SE,3.5,-,N/A,,Mostly Cloudy,130,2013-06-01 21:51:00
3:51 PM,107.1,27.0,6,29.61,10.0,Variable,3.5,-,N/A,,Mostly Cloudy,0,2013-06-01 22:51:00
4:51 PM,107.1,30.0,7,29.59,10.0,WSW,9.2,-,N/A,,Mostly Cloudy,240,2013-06-01 23:51:00
5:51 PM,106.0,32.0,8,29.58,10.0,Variable,4.6,-,N/A,,Mostly Cloudy,0,2013-06-02 00:51:00
6:51 PM,105.1,36.0,9,29.59,10.0,NW,11.5,-,N/A,,Mostly Cloudy,310,2013-06-02 01:51:00
7:51 PM,102.9,37.0,10,29.60,10.0,WNW,10.4,-,N/A,,Mostly Cloudy,290,2013-06-02 02:51:00
8:51 PM,102.0,39.0,11,29.60,10.0,West,5.8,-,N/A,,Mostly Cloudy,280,2013-06-02 03:51:00
9:51 PM,95.0,42.1,16,29.62,10.0,SW,5.8,-,N/A,,Mostly Cloudy,230,2013-06-02 04:51:00
10:51 PM,97.0,41.0,14,29.63,10.0,WNW,3.5,-,N/A,,Mostly Cloudy,290,2013-06-02 05:51:00
11:51 PM,96.1,41.0,15,29.62,10.0,WNW,4.6,-,N/A,,Mostly Cloudy,300,2013-06-02 06:51:00